Regional Weather Roundup
Issued by NWS Kansas City/Pleasant Hill, MO

Home | Current Version | Previous Version | Text Only | Print | Product List | Glossary On
Versions: 1 2 3 4 5 6 7 8 9 10 11 12 13 14 15 16 17 18 19 20 21 22 23 24 25 26 27 28 29 30 31 32 33 34 35 36 37 38 39 40 41 42 43 44 45 46 47 48 49 50
000
ASUS43 KEAX 262310
RWREAX

WEATHER ROUNDUP FOR EASTERN KANSAS AND NORTHWEST MISSOURI
NATIONAL WEATHER SERVICE KANSAS CITY/PLEASANT HILL MO
600 PM CDT WED JUL 26 2017

KSZ040-057-103>105-MOZ028-029-037-043-270000-
...KANSAS CITY METROPOLITAN AREA...

CITY           SKY/WX    TMP DP  RH WIND       PRES   REMARKS
K.C. INTL      CLOUDY    78  76  93 SE6       29.96F
K.C. DOWNTOWN  LGT RAIN  81  78  91 S3        29.95F
LEES SUMMIT    CLOUDY    80  79  96 CALM      29.98F
OLATHE - IXD   LGT RAIN  78  76  93 E6        29.96F
OLATHE - OJC   LGT RAIN  78  78 100 NE3       29.96F FOG
LAWRENCE       RAIN      78  77  96 N6        29.96F FOG

$$

MOZ001>008-011>017-020>025-030>033-038>040-044>046-053-054-270000-
...NORTHERN AND CENTRAL MISSOURI...

CITY           SKY/WX    TMP DP  RH WIND       PRES   REMARKS
ST. JOSEPH     PTSUNNY   82  77  84 S5        29.96F HX  90
MOSBY          CLOUDY    81  73  78 CALM      29.97F
WARRENSBURG    PTSUNNY   84  73  70 CALM      29.96S HX  91
WHITEMAN AFB   DRIZZLE   86  81  84 CALM      29.95F HX 102
CLINTON        PTSUNNY   86  79  79 CALM      29.96F HX  99
SEDALIA        CLOUDY    88  79  74 S3        29.98F HX 103
WARSAW         NOT AVBL
CHILLICOTHE      N/A     80  78  94 CALM      29.98F
KIRKSVILLE     CLOUDY    82  76  81 SW5       29.99S

$$

MOZ041-047>049-056>058-063>065-088>090-097-270000-
...EASTERN AND SOUTHERN MISSOURI...

CITY           SKY/WX    TMP DP  RH WIND       PRES   REMARKS
ST. LOUIS INTL CLOUDY    94  75  54 N6        29.96F HX 105
SPIRIT OF STL  PTSUNNY   95  74  50 SW6       29.93F HX 105
JEFFERSON CITY CLOUDY    92  76  59 CALM      29.94F HX 104
ROLLA          CLOUDY    92  71  50 SW6       29.99F HX  98
OSAGE BEACH    PTSUNNY   94  70  45 W7        29.97F HX 100
SPRINGFIELD    CLOUDY    93  71  48 SW8       30.00S HX 100
BRANSON        CLOUDY    91  70  49 SW7       30.04S HX  97
JOPLIN         PTSUNNY   97  72  44 SW14      29.98S HX 105
WEST PLAINS      N/A     90  69  50 S8        30.04F HX  94

$$

IAZ060-094-KSZ022-034>040-054-083-096-NEZ052-066-093-270000-
...KANSAS...SOUTHEAST NEBRASKA AND IOWA...

CITY           SKY/WX    TMP DP  RH WIND       PRES   REMARKS
TOPEKA         CLOUDY    77  77 100 SE7       29.93F
MANHATTAN      CLOUDY    80  76  87 NE5       29.93R
EMPORIA        CLOUDY    81  76  84 SE9       29.92F
CHANUTE        MOSUNNY   93  72  50 S16       29.95S HX 101
WICHITA        CLOUDY    81  76  84 E5        29.90F
OMAHA          CLOUDY    76  72  87 N3        29.99R
LINCOLN        RAIN      74  73  97 NE8       29.99S FOG
FALLS CITY     CLOUDY    80  73  79 SW9       29.98R
LAMONI         CLOUDY    80  73  79 SE7       29.98F
DES MOINES     CLOUDY    79  71  76 S5        29.96S

$$




USA.gov is the U.S. government's official web portal to all federal, state and local government web resources and services.